INTELSAT 602 1 20315U 89087A 12037.42524052 .00000030 00000-0 10000-3 0 4228 2 20315 009.0925 054.1050 0000994 251.1933 161.5745 01.00273079 79395 LEASAT 5 1 20410U 90002B 12036.99696318 -.00000070 00000-0 10000-3 0 6350 2 20410 009.8859 028.6835 0002036 287.6251 250.1978 01.00274118 66101 INTELSAT 603 1 20523U 90021A 12036.99145690 .00000070 00000-0 10000-3 0 9855 2 20523 008.5945 055.6496 0001078 246.6664 201.6290 01.00273507 73140 INTELSAT 604 1 20667U 90056A 12036.53987207 -.00000002 00000-0 10000-3 0 1140 2 20667 008.9183 056.3859 0005008 230.3409 129.7206 00.98432436 81614 INTELSAT 605 1 21653U 91055A 12033.82479895 -.00000192 00000-0 10000-3 0 2011 2 21653 006.7088 061.4345 0001580 274.9284 085.1280 00.99328682 74845 INTELSAT 601 1 21765U 91075A 12035.37864829 -.00000295 +00000-0 +10000-3 0 03020 2 21765 006.6942 060.1858 0003851 256.0746 103.9783 00.99595843074065 NSS K (INTELSAT K) 1 21989U 92032A 12036.69511811 -.00000088 00000-0 10000-3 0 6515 2 21989 008.7980 057.8545 0089359 224.9667 134.4088 00.97180235 81515 INTELSAT 701 1 22871U 93066A 12035.56000139 -.00000137 00000-0 10000-3 0 8455 2 22871 000.1842 079.6435 0002608 229.8036 183.2391 01.00271212 66855 INTELSAT 702 1 23124U 94034A 12033.69648962 +.00000129 +00000-0 +00000-0 0 06686 2 23124 000.5318 080.0019 0002486 215.5922 134.9112 01.00272295078751 NSS 703 (INTELSAT 703) 1 23305U 94064A 12034.14368700 -.00000276 00000-0 00000+0 0 5750 2 23305 002.1978 072.9694 0014709 163.2735 261.3075 01.00273032 63569 INTELSAT 704 1 23461U 95001A 12037.40574481 -.00000294 00000-0 10000-3 0 3991 2 23461 002.4534 071.3782 0002943 299.5082 060.6583 00.99184448 62460 INTELSAT 705 1 23528U 95013A 12036.78851393 -.00000107 00000-0 00000+0 0 3581 2 23528 002.0224 072.4915 0017227 325.1888 034.8664 00.98975229 61698 INTELSAT 706 1 23571U 95023A 12036.99696080 -.00000058 00000-0 10000-3 0 4472 2 23571 000.4734 078.6747 0003325 245.3971 242.3470 01.00272303 61233 INTELSAT 707 1 23816U 96015A 12034.06123705 -.00000282 00000-0 10000-3 0 3435 2 23816 000.0244 319.2125 0002998 005.0092 137.4445 01.00270298 58212 INTELSAT 709 1 23915U 96035A 12033.89806398 -.00000055 00000-0 10000-3 0 4791 2 23915 000.0129 256.0947 0001082 070.6770 201.0846 01.00272308 57292 INTELSAT 801 1 24742U 97009A 12035.10816693 -.00000214 00000-0 10000-3 0 633 2 24742 003.0272 070.5183 0002504 260.5979 171.9947 01.00273027 54726 INTELSAT 802 1 24846U 97031A 12033.26360956 -.00000157 +00000-0 +10000-3 0 03374 2 24846 001.0006 073.2843 0026507 175.6440 110.7673 00.98110023053442 NSS 5 (INTELSAT 803) 1 24957U 97053A 12034.05873694 -.00000152 00000-0 00000+0 0 2758 2 24957 000.0136 043.4258 0003060 296.0957 154.2466 01.00272903 52618 INTELSAT 804 1 25110U 97083A 12034.13298864 +.00000015 +00000-0 +10000-3 0 09627 2 25110 006.3553 061.3212 0006030 277.0404 082.9671 01.00155992051800 NSS 806 (INTELSAT 806) 1 25239U 98014A 12034.00000000 -.00000258 00000-0 00000+0 0 8379 2 25239 000.0180 357.7680 0002687 332.8580 121.4620 01.00270488 51103 INTELSAT 805 1 25371U 98037A 12034.18730222 -.00000282 +00000-0 +10000-3 0 08367 2 25371 000.0032 007.2548 0003033 313.9473 183.4889 01.00272285049944 INTELSAT 901 1 26824U 01024A 12035.10845660 -.00000139 00000-0 10000-3 0 8447 2 26824 000.0180 069.3021 0002661 236.5851 208.8291 01.00272874 39068 INTELSAT 902 1 26900U 01039A 12036.91344896 .00000032 00000-0 00000+0 0 8517 2 26900 000.0111 012.3848 0003311 304.9901 208.9160 01.00274232 38257 INTELSAT 904 1 27380U 02007A 12035.85006060 .00000050 00000-0 00000+0 0 9012 2 27380 000.0221 042.7060 0003079 260.4418 197.2649 01.00273033 36499 INTELSAT 903 1 27403U 02016A 12035.10804497 -.00000236 00000-0 10000-3 0 6295 2 27403 000.0223 068.9008 0003374 253.1572 175.9991 01.00272473 36149 INTELSAT 905 1 27438U 02027A 12035.10829652 -.00000183 00000-0 10000-3 0 4564 2 27438 000.0072 159.5800 0002518 149.9068 198.6487 01.00270906 35462 INTELSAT 906 1 27513U 02041A 12036.98879763 .00000014 00000-0 00000+0 0 6467 2 27513 000.0157 357.6795 0003166 320.1798 237.7713 01.00272705 34530 INTELSAT 907 1 27683U 03007A 12035.10822029 -.00000200 +00000-0 +10000-3 0 02014 2 27683 000.0152 340.8611 0003107 333.2853 190.9657 01.00271537032870 INTELSAT 1002 1 28358U 04022A 12034.80691530 -.00000008 +00000-0 +10000-3 0 02330 2 28358 000.0224 121.3869 0000809 151.8478 149.6523 01.00272968028013 GALAXY 28 (IA 8) 1 28702U 05022A 12034.42878161 -.00000182 00000-0 10000-3 0 2185 2 28702 000.0329 077.9400 0001793 080.3043 040.0767 01.00271106 24277 GALAXY 14 1 28790U 05030A 12037.07599087 .00000036 00000-0 10000-3 0 2583 2 28790 000.0201 298.7833 0002722 009.1600 090.0000 01.00272927 23723 GALAXY 15 1 28884U 05041A 12036.12151964 .00000080 00000-0 10000-3 0 2851 2 28884 000.0125 015.9030 0002640 298.7700 090.7319 01.00271737 23140 GALAXY 16 1 29236U 06023A 12035.33247862 -.00000125 +00000-0 +10000-3 0 01286 2 29236 000.0030 127.9787 0002431 180.7477 205.8537 01.00272003020650 GALAXY 17 1 31307U 07016B 12034.50432135 -.00000171 +00000-0 +10000-3 0 08332 2 31307 000.0168 038.5651 0002917 280.4335 264.6043 01.00270876017456 INTELSAT 11 (PAS 11) 1 32253U 07044B 12034.24473749 -.00000266 00000-0 10000-3 0 6491 2 32253 000.0147 151.6463 0004116 136.0452 250.2440 01.00272044 15900 HORIZONS 2 1 32388U 07063B 12036.87664069 -.00000183 00000-0 10000-3 0 7038 2 32388 000.0143 034.1422 0002945 238.2095 263.5116 01.00271108 15289 GALAXY 18 1 32951U 08024A 12035.36213737 .00000027 00000-0 10000-3 0 5840 2 32951 000.0253 203.5414 0002710 111.1027 186.6277 01.00272682 13609 INTELSAT 25(PROTOSTAR 1) 1 33153U 08034A 12033.98087434 -.00000221 00000-0 10000-3 0 6382 2 33153 000.0336 285.1187 0001970 031.0549 138.0115 01.00271720 13126 INTELSAT 14 1 36097U 09064A 12034.24430907 -.00000271 00000-0 00000+0 0 3548 2 36097 000.0185 028.0359 0003784 190.2601 317.4844 01.00270048 8088 INTELSAT 15 1 36106U 09067A 12036.76111712 -.00000185 00000-0 10000-3 0 4798 2 36106 000.0142 036.8852 0002621 271.9597 185.5924 01.00271502 8008 INTELSAT 16 1 36397U 10006A 12034.22149690 -.00000282 +00000-0 +10000-3 0 03742 2 36397 000.0284 289.6344 0002013 043.0334 181.7317 01.00270078007227